Regional Weather Roundup
Issued by NWS Goodland, KS

Home | Current Version | Previous Version | Text Only | Print | Product List | Glossary On
Versions: 1 2 3 4 5 6 7 8 9 10 11 12 13 14 15 16 17 18 19 20 21 22 23 24 25 26 27 28 29 30 31 32 33 34 35 36 37 38 39 40 41 42 43 44 45 46 47 48 49 50
000
ASUS43 KGLD 080608
RWRGLD

GOODLAND FORECAST AREA HOURLY WEATHER ROUNDUP
NATIONAL WEATHER SERVICE GOODLAND KS
1100 PM MST WED DEC 07 2016

...OFFICIAL OBSERVATIONS...

CITY           SKY/WX    TMP DP  RH WIND       PRES   REMARKS
GOODLAND KS    CLEAR      2  -4  76 NW13      30.49R WCI -15
HILL CITY KS   CLEAR     11   5  77 NW13      30.57R WCI  -4
IMPERIAL NEB   CLEAR      3  -5  69 NW13      30.52R WCI -14
MCCOOK NEB     CLEAR      3  -3  76 W12       30.55R WCI -13
AKRON CO       CLOUDY    -6 -11  79 SW8       30.44R
BURLINGTON CO  CLEAR      0  -7  72 W13       30.47R WCI -18
LIMON CO       CLOUDY    -8 -11  86 CALM      30.41R
$$

...UNOFFICIAL OBSERVATIONS...

CITY           SKY/WX    TMP DP  RH WIND       PRES   REMARKS
COLBY KS       CLEAR      5   1  85 NW10      30.52R WCI -10
LENORA KS        N/A      7  32 100 MISG        N/A
NORTON KS      CLEAR      5  -2  72 W10       30.53S WCI -10
SHARON SPRINGS   N/A      7   3  82 NW9         N/A
TRIBUNE KS     CLOUDY     7   1  78 NW8       30.53R
TRENTON NEB      N/A      1  32 100 NW8         N/A
KIT CARSON CO    N/A      1  -4  78 CALM        N/A
YUMA CO        FAIR      -6  -9  84 W12       30.48R WCI -24
$$




USA.gov is the U.S. government's official web portal to all federal, state and local government web resources and services.